| time (UTC) | temp F | wind direction | speed MPH | gust MPH | rain 1hr in | rain 24hr in | rain mn in | humidity % | barometer mb |
| 20260903091534 | 77 | 335 | 6.0 | 11.0 | 0.00 | 0.00 | 0.00 | 50 | 1021.2 |
| 20260903090032 | 76 | 15 | 4.0 | 10.0 | 0.00 | 0.00 | 0.00 | 54 | 1021.5 |
| 20260903084533 | 75 | 340 | 3.0 | 9.0 | 0.00 | 0.00 | 0.00 | 56 | 1021.6 |
| 20260903083023 | 74 | 333 | 5.0 | 9.0 | 0.00 | 0.00 | 0.00 | 57 | 1021.7 |
| 20260903081520 | 73 | 342 | 3.0 | 6.0 | 0.00 | 0.00 | 0.00 | 59 | 1021.7 |
| 20260903080017 | 72 | 9 | 5.0 | 9.0 | 0.00 | 0.00 | 0.00 | 60 | 1021.7 |
| 20260903074515 | 72 | 345 | 4.0 | 6.0 | 0.00 | 0.00 | 0.00 | 61 | 1021.7 |
| 20260903073031 | 71 | 355 | 3.0 | 8.0 | 0.00 | 0.00 | 0.00 | 63 | 1021.7 |
| 20260903071510 | 70 | 355 | 3.0 | 6.0 | 0.00 | 0.00 | 0.00 | 64 | 1022.1 |
| 20260903070009 | 69 | 342 | 3.0 | 8.0 | 0.00 | 0.00 | 0.00 | 65 | 1022.2 |
| 20260903064509 | 68 | 335 | 4.0 | 10.0 | 0.00 | 0.00 | 0.00 | 67 | 1022.0 |
| 20260903063007 | 67 | 342 | 2.0 | 6.0 | 0.00 | 0.00 | 0.00 | 69 | 1021.9 |
| 20260903061509 | 67 | 317 | 2.0 | 5.0 | 0.00 | 0.00 | 0.00 | 71 | 1021.9 |
| 20260903060003 | 65 | 355 | 2.0 | 10.0 | 0.00 | 0.00 | 0.00 | 73 | 1021.8 |
| 20260903054501 | 64 | 5 | 2.0 | 4.0 | 0.00 | 0.00 | 0.00 | 77 | 1021.6 |
| 20260903053110 | 63 | 299 | 1.0 | 4.0 | 0.00 | 0.00 | 0.00 | 77 | 1021.4 |
| 20260903051556 | 63 | 319 | 0.0 | 3.0 | 0.00 | 0.00 | 0.00 | 77 | 1021.3 |
| 20260903050055 | 64 | 308 | 1.0 | 6.0 | 0.00 | 0.00 | 0.00 | 78 | 1021.2 |
| 20260903044602 | 64 | 339 | 0.0 | 4.0 | 0.00 | 0.00 | 0.00 | 78 | 1020.9 |
| 20260903043052 | 64 | 323 | 3.0 | 5.0 | 0.00 | 0.00 | 0.00 | 78 | 1020.9 |
| 20260903041554 | 64 | 302 | 1.0 | 2.0 | 0.00 | 0.00 | 0.00 | 78 | 1020.8 |
| 20260903040049 | 64 | 303 | 1.0 | 3.0 | 0.00 | 0.00 | 0.00 | 78 | 1020.8 |
| 20260903034548 | 64 | 312 | 1.0 | 3.0 | 0.00 | 0.00 | 0.00 | 78 | 1020.7 |
| 20260903033052 | 64 | 311 | 2.0 | 3.0 | 0.00 | 0.00 | 0.00 | 78 | 1020.7 |
| 20260903031550 | 64 | 304 | 1.0 | 5.0 | 0.00 | 0.00 | 0.00 | 79 | 1020.8 |
| 20260903030107 | 64 | 322 | 1.0 | 4.0 | 0.00 | 0.00 | 0.00 | 79 | 1020.8 |
| 20260903024544 | 64 | 346 | 2.0 | 4.0 | 0.00 | 0.00 | 0.00 | 79 | 1020.7 |
| 20260903023042 | 65 | 317 | 2.0 | 4.0 | 0.00 | 0.00 | 0.00 | 78 | 1020.7 |
| 20260903021540 | 65 | 327 | 0.0 | 1.0 | 0.00 | 0.00 | 0.00 | 78 | 1020.6 |
| 20260903020038 | 65 | 327 | 1.0 | 3.0 | 0.00 | 0.00 | 0.00 | 78 | 1020.6 |
| 20260903014536 | 66 | 11 | 1.0 | 3.0 | 0.00 | 0.00 | 0.00 | 78 | 1020.5 |
| 20260903013042 | 66 | 309 | 0.0 | 0.0 | 0.00 | 0.00 | 0.00 | 77 | 1020.5 |
| 20260903011533 | 66 | 309 | 0.0 | 2.0 | 0.00 | 0.00 | 0.00 | 77 | 1020.4 |
| 20260903010036 | 66 | 307 | 0.0 | 1.0 | 0.00 | 0.00 | 0.00 | 77 | 1020.3 |
| 20260903004529 | 67 | 310 | 0.0 | 2.0 | 0.00 | 0.00 | 0.00 | 76 | 1020.1 |
| 20260903003036 | 67 | 309 | 0.0 | 3.0 | 0.00 | 0.00 | 0.00 | 76 | 1020.0 |
| 20260903001527 | 67 | 307 | 0.0 | 3.0 | 0.00 | 0.00 | 0.00 | 77 | 1019.9 |
| 20260903000026 | 67 | 306 | 0.0 | 2.0 | 0.00 | 0.00 | 0.00 | 76 | 1019.8 |
| 20260902234525 | 68 | 305 | 2.0 | 4.0 | 0.00 | 0.00 | 0.00 | 76 | 1019.8 |
| 20260902233021 | 68 | 302 | 0.0 | 3.0 | 0.00 | 0.00 | 0.00 | 75 | 1019.7 |
| 20260902231528 | 69 | 298 | 0.0 | 2.0 | 0.00 | 0.00 | 0.00 | 75 | 1019.7 |
| 20260902230016 | 69 | 300 | 0.0 | 2.0 | 0.00 | 0.00 | 0.00 | 74 | 1019.6 |
| 20260902224529 | 70 | 300 | 1.0 | 3.0 | 0.00 | 0.00 | 0.00 | 73 | 1019.6 |
| 20260902223015 | 70 | 296 | 1.0 | 3.0 | 0.00 | 0.00 | 0.00 | 73 | 1019.5 |
| 20260902221516 | 70 | 348 | 0.0 | 2.0 | 0.00 | 0.00 | 0.00 | 73 | 1019.4 |
| 20260902220012 | 70 | 12 | 1.0 | 4.0 | 0.00 | 0.00 | 0.00 | 73 | 1019.2 |
| 20260902214511 | 71 | 262 | 0.0 | 0.0 | 0.00 | 0.00 | 0.00 | 74 | 1019.1 |
| 20260902213008 | 71 | 262 | 0.0 | 0.0 | 0.00 | 0.00 | 0.00 | 75 | 1019.0 |
| 20260902211506 | 72 | 262 | 0.0 | 0.0 | 0.00 | 0.00 | 0.00 | 73 | 1018.8 |
| 20260902210008 | 73 | 262 | 0.0 | 0.0 | 0.00 | 0.00 | 0.00 | 72 | 1018.6 |
| 20260902204507 | 73 | 262 | 0.0 | 0.0 | 0.00 | 0.00 | 0.00 | 72 | 1018.5 |
| 20260902203005 | 73 | 261 | 0.0 | 0.0 | 0.00 | 0.00 | 0.00 | 71 | 1018.4 |
| 20260902201512 | 74 | 261 | 0.0 | 0.0 | 0.00 | 0.00 | 0.00 | 70 | 1018.2 |
| 20260902200004 | 74 | 261 | 0.0 | 0.0 | 0.00 | 0.00 | 0.00 | 70 | 1018.1 |
| 20260902194510 | 74 | 261 | 0.0 | 0.0 | 0.00 | 0.00 | 0.00 | 70 | 1018.1 |
| 20260902193011 | 74 | 261 | 0.0 | 3.0 | 0.00 | 0.00 | 0.00 | 70 | 1017.9 |
| 20260902191504 | 76 | 292 | 0.0 | 2.0 | 0.00 | 0.00 | 0.00 | 67 | 1017.7 |
| 20260902190002 | 77 | 279 | 0.0 | 2.0 | 0.00 | 0.00 | 0.00 | 64 | 1017.5 |
| 20260902184502 | 77 | 277 | 0.0 | 4.0 | 0.00 | 0.00 | 0.00 | 62 | 1017.1 |
| 20260902183002 | 78 | 277 | 0.0 | 4.0 | 0.00 | 0.00 | 0.00 | 61 | 1016.8 |
| 20260902181611 | 79 | 32 | 3.0 | 8.0 | 0.00 | 0.00 | 0.00 | 60 | 1016.5 |
| 20260902180104 | 82 | 236 | 6.0 | 11.0 | 0.00 | 0.00 | 0.00 | 53 | 1016.4 |
| 20260902174559 | 83 | 211 | 5.0 | 19.0 | 0.00 | 0.00 | 0.00 | 49 | 1016.2 |
| 20260902173112 | 81 | 216 | 6.0 | 13.0 | 0.00 | 0.00 | 0.00 | 52 | 1016.1 |
| 20260902171602 | 81 | 281 | 3.0 | 9.0 | 0.00 | 0.00 | 0.00 | 51 | 1015.8 |
| 20260902170056 | 81 | 264 | 0.0 | 8.0 | 0.00 | 0.00 | 0.00 | 52 | 1015.7 |
| 20260902164602 | 80 | 241 | 1.0 | 5.0 | 0.00 | 0.00 | 0.00 | 54 | 1015.8 |
| 20260902163101 | 82 | 236 | 2.0 | 5.0 | 0.00 | 0.00 | 0.00 | 54 | 1015.7 |
| 20260902161554 | 82 | 197 | 1.0 | 4.0 | 0.00 | 0.00 | 0.00 | 49 | 1015.7 |
| 20260902160104 | 83 | 211 | 2.0 | 5.0 | 0.00 | 0.00 | 0.00 | 52 | 1015.6 |
| 20260902154552 | 85 | 284 | 4.0 | 12.0 | 0.00 | 0.00 | 0.00 | 46 | 1015.5 |
| 20260902153055 | 85 | 220 | 3.0 | 12.0 | 0.00 | 0.00 | 0.00 | 45 | 1015.5 |
| 20260902151551 | 86 | 219 | 6.0 | 14.0 | 0.00 | 0.00 | 0.00 | 42 | 1015.6 |
| 20260902150049 | 86 | 223 | 5.0 | 11.0 | 0.00 | 0.00 | 0.00 | 44 | 1015.8 |
| 20260902144547 | 87 | 232 | 7.0 | 15.0 | 0.00 | 0.00 | 0.00 | 42 | 1015.9 |
| 20260902143047 | 87 | 165 | 6.0 | 16.0 | 0.00 | 0.00 | 0.00 | 42 | 1015.9 |
| 20260902141544 | 87 | 200 | 7.0 | 18.0 | 0.00 | 0.00 | 0.00 | 41 | 1016.0 |
| 20260902140043 | 87 | 167 | 6.0 | 18.0 | 0.00 | 0.00 | 0.00 | 42 | 1016.1 |
| 20260902134550 | 88 | 172 | 4.0 | 9.0 | 0.00 | 0.00 | 0.00 | 43 | 1016.2 |
| 20260902133037 | 86 | 257 | 1.0 | 4.0 | 0.00 | 0.00 | 0.00 | 47 | 1016.6 |
| 20260902131542 | 85 | 250 | 3.0 | 7.0 | 0.00 | 0.00 | 0.00 | 47 | 1016.7 |
| 20260902130035 | 86 | 276 | 2.0 | 6.0 | 0.00 | 0.00 | 0.00 | 46 | 1016.8 |
| 20260902124529 | 85 | 270 | 3.0 | 6.0 | 0.00 | 0.00 | 0.00 | 48 | 1017.1 |
| 20260902123032 | 84 | 231 | 4.0 | 6.0 | 0.00 | 0.00 | 0.00 | 48 | 1017.4 |
| 20260902121523 | 84 | 243 | 2.0 | 5.0 | 0.00 | 0.00 | 0.00 | 49 | 1017.5 |
| 20260902120021 | 84 | 238 | 2.0 | 6.0 | 0.00 | 0.00 | 0.00 | 48 | 1017.7 |
| 20260902114518 | 83 | 226 | 3.0 | 5.0 | 0.00 | 0.00 | 0.00 | 48 | 1018.1 |
| 20260902113014 | 82 | 49 | 2.0 | 6.0 | 0.00 | 0.00 | 0.00 | 51 | 1018.4 |
| 20260902111511 | 81 | 5 | 1.0 | 5.0 | 0.00 | 0.00 | 0.00 | 52 | 1018.6 |
| 20260902110014 | 80 | 304 | 2.0 | 4.0 | 0.00 | 0.00 | 0.00 | 53 | 1018.9 |
| 20260902104509 | 80 | 315 | 2.0 | 4.0 | 0.00 | 0.00 | 0.00 | 54 | 1019.1 |
| 20260902103008 | 79 | 355 | 2.0 | 6.0 | 0.00 | 0.00 | 0.00 | 53 | 1019.4 |
| 20260902101505 | 79 | 280 | 1.0 | 4.0 | 0.00 | 0.00 | 0.00 | 55 | 1019.6 |
| 20260902100002 | 78 | 355 | 1.0 | 5.0 | 0.00 | 0.00 | 0.00 | 56 | 1019.9 |
| 20260902094600 | 78 | 5 | 3.0 | 6.0 | 0.00 | 0.00 | 0.00 | 57 | 1019.9 |
| 20260902093104 | 77 | 31 | 3.0 | 8.0 | 0.00 | 0.00 | 0.00 | 58 | 1019.9 |